Location: Koussan�
(15.2012°N, 12.5548°W)
Time: 11:41:13
(UTC+00:00)

Cosmos 1939 Rocket - Pass Details

Date: 20 October 2020
Orbit: 532 x 584 km, 97.4° (Epoch: 27 November)

Event Time Altitude Azimuth Distance (km) Brightness Sun altitude
Rises 18:37:46 0° 142° (SE) 2,784 6.1 -3.5°
Reaches altitude 10° 18:40:18 10° 127° (SE) 1,880 5.1 -4.1°
Maximum altitude 18:43:27 22° 76° (ENE) 1,275 4.1 -4.8°
Drops below altitude 10° 18:46:34 10° 25° (NNE) 1,861 5.2 -5.6°
Sets 18:49:03 0° 10° (N) 2,748 6.2 -6.2°
